TimeCDT,TemperatureF,Dew PointF,Humidity,Sea Level PressureIn,VisibilityMPH,Wind Direction,Wind SpeedMPH,Gust SpeedMPH,PrecipitationIn,Events,Conditions,WindDirDegrees,DateUTC
12:15 AM,50.0,50.0,100,30.08,0.2,ESE,25.3,33.4,N/A,Fog,Fog,120,2013-05-26 05:15:00
12:35 AM,50.0,50.0,100,30.07,0.5,ESE,23.0,29.9,N/A,Fog,Fog,120,2013-05-26 05:35:00
12:55 AM,50.0,50.0,100,30.05,0.2,ESE,24.2,31.1,N/A,Fog,Fog,120,2013-05-26 05:55:00
1:15 AM,50.0,50.0,100,30.05,0.2,ESE,26.5,35.7,N/A,Fog,Fog,120,2013-05-26 06:15:00
1:35 AM,50.0,50.0,100,30.04,0.2,ESE,27.6,-,N/A,Fog,Fog,120,2013-05-26 06:35:00
1:55 AM,50.0,50.0,100,30.01,0.5,SE,25.3,32.2,N/A,Fog,Fog,130,2013-05-26 06:55:00
2:15 AM,50.0,50.0,100,30.01,1.8,ESE,24.2,32.2,N/A,,Overcast,120,2013-05-26 07:15:00
2:35 AM,50.0,50.0,100,30.02,2.0,ESE,25.3,-,N/A,,Overcast,120,2013-05-26 07:35:00
2:55 AM,50.0,50.0,100,30.01,2.0,SE,26.5,34.5,N/A,,Overcast,130,2013-05-26 07:55:00
3:15 AM,50.0,50.0,100,29.99,2.0,SE,29.9,38.0,N/A,,Overcast,130,2013-05-26 08:15:00
3:35 AM,50.0,50.0,100,30.01,1.0,ESE,27.6,33.4,N/A,,Overcast,120,2013-05-26 08:35:00
3:55 AM,50.0,50.0,100,30.04,1.0,East,11.5,27.6,N/A,,Overcast,90,2013-05-26 08:55:00
4:15 AM,50.0,50.0,100,30.00,0.8,ESE,21.9,32.2,N/A,,Overcast,120,2013-05-26 09:15:00
4:35 AM,50.0,50.0,100,30.03,0.5,ESE,23.0,28.8,N/A,,Overcast,120,2013-05-26 09:35:00
4:55 AM,50.0,50.0,100,30.02,0.5,ESE,16.1,25.3,N/A,,Light Drizzle,120,2013-05-26 09:55:00
5:15 AM,50.0,50.0,100,30.02,0.2,East,16.1,28.8,N/A,Fog,Fog,100,2013-05-26 10:15:00
5:35 AM,50.0,50.0,100,30.04,0.2,ESE,16.1,23.0,N/A,Fog,Fog,110,2013-05-26 10:35:00
5:55 AM,50.0,50.0,100,30.09,0.5,NNE,10.4,-,N/A,,Overcast,20,2013-05-26 10:55:00
6:15 AM,50.0,50.0,100,30.07,1.2,ENE,15.0,20.7,N/A,,Light Drizzle,60,2013-05-26 11:15:00
6:35 AM,50.0,50.0,100,30.09,1.5,NE,12.7,18.4,N/A,,Light Drizzle,40,2013-05-26 11:35:00
6:55 AM,50.0,50.0,100,30.09,1.5,ENE,17.3,-,0.05,Rain,Light Rain,60,2013-05-26 11:55:00
7:15 AM,50.0,50.0,100,30.09,2.0,East,13.8,23.0,N/A,Rain,Light Rain,90,2013-05-26 12:15:00
7:35 AM,50.0,50.0,100,30.05,-9999.0,ESE,19.6,28.8,N/A,,Overcast,110,2013-05-26 12:35:00
7:55 AM,50.0,50.0,100,30.06,2.5,East,19.6,-,0.21,Rain,Rain,100,2013-05-26 12:55:00
8:15 AM,50.0,50.0,100,30.10,1.2,East,12.7,-,N/A,Rain,Rain,90,2013-05-26 13:15:00
8:35 AM,50.0,50.0,100,30.04,1.5,ESE,23.0,28.8,N/A,Rain,Light Rain,110,2013-05-26 13:35:00
8:55 AM,50.0,50.0,100,29.98,2.0,ESE,31.1,-,0.15,,Light Drizzle,120,2013-05-26 13:55:00
9:15 AM,50.0,50.0,100,29.99,2.5,SE,27.6,35.7,N/A,,Overcast,130,2013-05-26 14:15:00
9:35 AM,50.0,50.0,100,29.99,3.0,SE,23.0,33.4,N/A,,Overcast,130,2013-05-26 14:35:00
9:55 AM,51.8,51.8,100,29.98,4.0,SE,24.2,31.1,N/A,,Overcast,140,2013-05-26 14:55:00
10:15 AM,51.8,51.8,100,29.97,3.0,SE,23.0,29.9,N/A,,Overcast,140,2013-05-26 15:15:00
10:35 AM,53.6,53.6,100,29.97,5.0,SSE,25.3,32.2,N/A,,Overcast,150,2013-05-26 15:35:00
10:55 AM,55.4,55.4,100,29.98,7.0,SE,23.0,29.9,N/A,,Overcast,140,2013-05-26 15:55:00
11:15 AM,57.2,57.2,100,30.00,9.0,SSE,23.0,28.8,N/A,,Overcast,150,2013-05-26 16:15:00
11:35 AM,57.2,57.2,100,30.01,9.0,SSE,21.9,-,N/A,,Overcast,160,2013-05-26 16:35:00
11:55 AM,57.2,57.2,100,30.06,9.0,Calm,Calm,18.4,N/A,,Overcast,0,2013-05-26 16:55:00
12:15 PM,55.4,55.4,100,30.09,1.8,North,17.3,-,N/A,Rain,Heavy Rain,360,2013-05-26 17:15:00
12:35 PM,55.4,55.4,100,30.10,0.5,Variable,3.5,13.8,N/A,Rain,Heavy Rain,0,2013-05-26 17:35:00
12:55 PM,55.4,55.4,100,30.01,0.8,SE,21.9,-,0.90,Rain,Rain,130,2013-05-26 17:55:00
1:15 PM,55.4,55.4,100,29.96,2.5,SE,20.7,28.8,N/A,,Overcast,140,2013-05-26 18:15:00
1:35 PM,55.4,55.4,100,29.95,4.0,SE,23.0,-,N/A,Rain,Light Rain,140,2013-05-26 18:35:00
1:55 PM,57.2,57.2,100,29.98,7.0,SSE,19.6,31.1,0.05,,Mostly Cloudy,160,2013-05-26 18:55:00
2:15 PM,59.0,59.0,100,30.03,10.0,ENE,5.8,13.8,N/A,,Scattered Clouds,70,2013-05-26 19:15:00
2:35 PM,59.0,59.0,100,30.05,10.0,WNW,8.1,-,N/A,,Mostly Cloudy,290,2013-05-26 19:35:00
2:55 PM,59.0,59.0,100,29.99,1.5,ESE,16.1,-,0.18,Rain,Rain,110,2013-05-26 19:55:00
3:15 PM,57.2,57.2,100,30.01,5.0,SE,5.8,-,N/A,Rain,Light Rain,130,2013-05-26 20:15:00
3:35 PM,57.2,57.2,100,29.98,2.5,SSE,13.8,-,N/A,Rain,Rain,150,2013-05-26 20:35:00
3:55 PM,57.2,57.2,100,29.94,1.8,South,24.2,-,0.20,Rain,Rain,170,2013-05-26 20:55:00
4:15 PM,57.2,57.2,100,29.91,2.5,SSE,17.3,26.5,N/A,,Mostly Cloudy,150,2013-05-26 21:15:00
4:35 PM,59.0,59.0,100,29.92,5.0,SSE,18.4,25.3,N/A,,Scattered Clouds,160,2013-05-26 21:35:00
4:55 PM,59.0,59.0,100,29.93,4.0,South,19.6,27.6,0.03,,Mostly Cloudy,190,2013-05-26 21:55:00
5:15 PM,59.0,59.0,100,29.92,10.0,SW,12.7,18.4,N/A,,Mostly Cloudy,220,2013-05-26 22:15:00
5:35 PM,59.0,59.0,100,29.93,10.0,East,8.1,15.0,N/A,,Scattered Clouds,90,2013-05-26 22:35:00
5:55 PM,59.0,59.0,100,29.94,9.0,NE,15.0,-,N/A,,Partly Cloudy,50,2013-05-26 22:55:00
6:15 PM,59.0,59.0,100,29.94,6.0,East,15.0,-,N/A,,Partly Cloudy,80,2013-05-26 23:15:00
6:35 PM,59.0,59.0,100,29.94,4.0,East,17.3,-,N/A,,Partly Cloudy,80,2013-05-26 23:35:00
6:55 PM,57.2,57.2,100,29.95,3.0,East,19.6,-,N/A,,Mostly Cloudy,80,2013-05-26 23:55:00
7:15 PM,57.2,57.2,100,29.96,1.5,ENE,18.4,-,N/A,,Overcast,70,2013-05-27 00:15:00
7:35 PM,57.2,57.2,100,29.94,0.5,ENE,24.2,29.9,N/A,Fog,Fog,70,2013-05-27 00:35:00
7:55 PM,55.4,55.4,100,29.94,0.2,ENE,19.6,25.3,N/A,Fog,Fog,70,2013-05-27 00:55:00
8:15 PM,55.4,55.4,100,29.94,0.2,East,23.0,28.8,N/A,Fog,Fog,80,2013-05-27 01:15:00
8:35 PM,53.6,53.6,100,29.94,0.2,East,18.4,27.6,N/A,Fog,Fog,90,2013-05-27 01:35:00
8:55 PM,53.6,53.6,100,29.96,0.2,East,16.1,21.9,N/A,Fog,Fog,80,2013-05-27 01:55:00
9:15 PM,53.6,53.6,100,29.96,0.2,ENE,25.3,-,N/A,Fog,Fog,70,2013-05-27 02:15:00
9:35 PM,53.6,53.6,100,29.92,0.2,East,25.3,33.4,N/A,Fog,Fog,90,2013-05-27 02:35:00
9:55 PM,53.6,53.6,100,29.93,0.2,East,25.3,35.7,N/A,Fog,Fog,90,2013-05-27 02:55:00
10:15 PM,53.6,53.6,100,29.94,0.5,ENE,21.9,34.5,N/A,Fog,Fog,70,2013-05-27 03:15:00
10:35 PM,53.6,53.6,100,30.01,0.5,NE,20.7,34.5,N/A,Fog,Fog,40,2013-05-27 03:35:00
10:55 PM,51.8,51.8,100,29.99,1.5,ENE,24.2,-,0.06,Rain,Rain,70,2013-05-27 03:55:00
11:15 PM,53.6,53.6,100,29.95,3.0,ENE,28.8,-,N/A,Rain,Heavy Rain,70,2013-05-27 04:15:00
11:35 PM,53.6,53.6,100,29.99,2.0,East,17.3,-,N/A,Rain,Heavy Rain,80,2013-05-27 04:35:00
11:55 PM,53.6,53.6,100,29.97,0.5,ESE,18.4,32.2,1.01,Rain,Rain,120,2013-05-27 04:55:00